Location: Newark
(34.1333°N, 7.9667°W)
Time: 05:18:05
(UTC+00:00)

ITAMSAT 1 - Visible Passes

Search period start: 03 June 2023 00:00
Search period end: 13 June 2023 00:00
Orbit: 782 x 797 km, 98.8° (Epoch: 02 June)

Date Brightness Start Highest point End Pass type
(mag) Time Alt. Az. Time Alt. Az. Time Alt. Az.
03 Jun 7.9 20:33:20 10° S 20:38:30 73° WSW 20:43:41 10° NNW visible
04 Jun 7.9 20:03:50 10° SSE 20:08:53 56° ENE 20:13:56 10° N visible
04 Jun 10.2 21:45:58 10° SW 21:48:35 14° W 21:51:13 10° WNW visible
05 Jun 9.4 21:14:16 10° SSW 21:18:41 28° W 21:23:07 10° NW visible
06 Jun 8.2 20:43:49 10° S 20:48:54 57° W 20:53:59 10° NNW visible
07 Jun 7.7 20:14:05 10° SSE 20:19:13 71° ENE 20:24:23 10° N visible
07 Jun 10.4 21:58:03 10° WSW 21:59:04 11° W 22:00:05 10° W visible
08 Jun 9.7 21:25:08 10° SSW 21:29:08 22° W 21:33:08 10° NW visible
09 Jun 8.6 20:54:22 10° S 20:59:18 45° W 21:04:15 10° NNW visible
10 Jun 7.7 20:24:24 10° SSE 20:29:34 89° E 20:34:46 10° NNW visible
11 Jun 10.0 21:36:09 10° SW 21:39:34 18° W 21:43:00 10° NW visible
12 Jun 9.0 21:05:00 10° SSW 21:09:42 35° W 21:14:25 10° NNW visible
